Location: Allonne
(49.4086°N, 2.1143°E)
Time: 16:08:48
(UTC+00:00)

DMSP B5D2-2 - Pass Details

Date: 10 August 2024
Orbit: 787 x 802 km, 98.3° (Epoch: 09 September)

Event Time Altitude Azimuth Distance (km) Brightness Sun altitude
Rises 03:04:44 0° 155° (SSE) 3,275 7.1 -13.1°
Reaches altitude 10° 03:07:04 10° 153° (SSE) 2,348 6.4 -12.8°
Maximum altitude 03:12:12 68° 71° (ENE) 852 4.5 -12.2°
Drops below altitude 10° 03:17:22 10° 350° (N) 2,361 7.0 -11.5°
Sets 03:19:43 0° 348° (NNW) 3,294 7.7 -11.3°
